Regional Weather Roundup
Issued by NWS Newport/Morehead, NC

Current Version | Previous Version | Graphics & Text | Print | Product List | Glossary Off
Versions: 1 2 3 4 5 6 7 8 9 10 11 12 13 14 15 16 17 18 19 20 21 22 23 24 25 26 27 28 29 30 31 32 33 34 35 36 37 38 39 40 41 42 43 44 45 46 47 48 49 50

000
ASUS42 KMHX 191325
RWRMHX
WEATHER ROUNDUP FOR EASTERN NORTH CAROLINA
NATIONAL WEATHER SERVICE NEWPORT/MOREHEAD CITY NC
800 AM EST MON FEB 19 2018

NOTE: "FAIR" INDICATES FEW OR NO CLOUDS BELOW 12,000 FEET
WITH NO SIGNIFICANT WEATHER AND/OR OBSTRUCTIONS TO VISIBILITY

NCZ015>017-031-032-045>047-102-103-191400-
NORTH COAST

CITY           SKY/WX    TMP DP  RH WIND       PRES   REMARKS
EDENTON        CLOUDY    50  48  93 E7        30.48S FOG
ELIZABETH CITY LGT RAIN  50  47  89 E6        30.49R
KITTY HAWK     CLOUDY   N/A N/A N/A CALM      30.46F
MANTEO         CLOUDY    51  48  89 E7        30.48F

$$

NCZ045>047-081-094-103-104-191400-
CENTRAL COAST

CITY           SKY/WX    TMP DP  RH WIND       PRES   REMARKS
FRISCO         CLOUDY    58  54  86 SE10      30.46R

$$

NCZ095-097-098-100-101-191400-
SOUTHERN COAST

CITY           SKY/WX    TMP DP  RH WIND       PRES   REMARKS
BEAUFORT       CLOUDY    56  51  84 E5        30.43S
CEDAR ISLAND   NOT AVBL
JACKSONVILLE   CLOUDY    54  50  86 N3        30.44R
PINEY ISLAND   NOT AVBL
WILMINGTON     CLOUDY    55  52  89 NW6       30.44R


$$

NCZ011>013-027>030-043-044-078>080-089-090>093-098-191400-
COASTAL PLAIN

CITY           SKY/WX    TMP DP  RH WIND       PRES   REMARKS
AHOSKIE        RAIN      42  42 100 NE3       30.48F
CLINTON        CLOUDY    46  46  99 CALM      30.46R
ELIZABETHTOWN  NOT AVBL
GOLDSBORO      CLOUDY    45  43  91 NE3       30.44R
GREENVILLE     RAIN      45  45 100 CALM      30.46R
HAVELOCK       CLOUDY    56  52  86 NE6       30.45R
KENANSVILLE    CLOUDY    48  43  81 CALM      30.45S
KINSTON        CLOUDY    46  43  87 NE3       30.46R
NEW BERN       CLOUDY    52  47  83 E3        30.46R
RICHLANDS      CLOUDY    50  46  86 NE5       30.45R
ROCKY MOUNT    LGT RAIN  44  43  96 CALM      30.47S FOG
WASHINGTON     CLOUDY    47  44  92 E3        30.46S
WHITEVILLE     CLOUDY    50  48  94 CALM      30.43R FOG

$$

AMZ130-135-150-152-154-156-158-170-250-252-270-ANZ085-086-088-633-658-670-191400-
MARINE OBSERVATIONS

STATION/POSITION TIME  TEMP    WIND        PRES    WAVE   SWELL
                       AIR SEA DIR/SP/G            HT/PER HT/PER
                 (UTC) (F)     (DEG/KT/KT) (MB)    (FT/S) (FT/S)
CHESAPEAKE LIGHT NOT AVBL
64 E VA BEACH    1250   52 49  100/ 10/ 12 1033.0    3/10   2/10
DUCK             1300   47 45  100/  5/  6 1031.8
2 E DUCK         1300      44                N/A     3/ 5
OREGON INLET     1300           70/  6/  7   N/A
13E OREGON INLT  1248      46                N/A     3/ 5   3/ 5
HATTERAS CG      1300   61 56  130/  9/ 13 1031.2
DIAMOND BUOY     1310   66 72  130/ 16/ 21 1031.9
CAPE LOOKOUT     1300          120/ 10/ 11 1030.5
BEAUFORT LAB     1300   55 54   40/  1/  3 1030.7
30 SE NEW RVR IN 1208   66 64  140/ 14/ 17 1029.4
30 SE NEW RVR IN 1300      65                N/A     5/ 5
27 SE WRIGHTSVLE 1208   68 68  140/ 12/ 19 1029.4
5 SE WRIGHTSVLE  1308   54 53   30/  6/ 10 1029.4
225 S CAPE HAT   1250   69 72   80/ 17/ 21 1030.2    6/ 8   3/ 8
41 SE CHARLESTON 1310   69     140/ 10/ 14 1028.4

$$




USA.gov is the U.S. government's official web portal to all federal, state and local government web resources and services.